RH
65 27 6 37 12 28 72 74 92 88 68 72 65 46 42 40 53 77 70 58 24 31 39 54 68 83 83 85 61 73 96 100 96 98 92 75 66 68 69 70 86 94 89 87 85 77 66 54 60 66 59 57 57 56
60 26 6 34 15 40 78 76 75 89 73 73 77 78 66 67 68 64 72 70 32 33 46 68 76 74 76 72 67 70 76 79 93 85 77 71 63 67 68 68 69 77 66 64 60 56 53 53 53 57 65 63 65 65
56 27 6 28 19 58 85 81 69 78 68 69 69 68 60 61 66 69 67 43 29 28 46 63 69 77 81 78 74 75 69 69 73 66 68 59 60 61 62 61 62 63 60 59 56 51 50 49 50 50 58 58 57 59
53 30 5 26 16 49 76 83 80 68 73 75 71 70 63 54 25 24 25 23 24 36 54 53 53 65 73 81 79 74 76 72 67 72 69 66 54 51 59 56 53 55 58 53 47 45 45 46 46 50 51 48 49 53
55 34 4 30 10 33 61 81 96 79 80 86 84 78 69 37 22 20 18 21 24 31 33 44 48 58 67 66 72 66 63 67 66 60 70 66 58 52 51 52 45 41 34 40 39 41 41 42 43 48 54 56 56 51
55 36 5 26 10 20 56 64 100 82 82 97 94 83 61 40 20 20 28 26 28 30 32 38 48 63 56 62 64 56 52 54 58 57 51 58 46 51 50 43 22 25 28 34 37 37 38 36 36 37 38 36 36 41
54 38 5 19 23 16 55 70 99 96 97 93 88 74 56 29 17 24 32 29 28 32 34 43 42 51 54 48 52 51 47 48 48 56 50 48 44 52 45 25 20 16 16 17 21 25 23 22 24 25 28 30 33 35
56 42 8 10 34 14 49 72 95 100 100 98 80 48 29 25 23 39 40 29 30 34 37 37 35 39 45 45 51 48 45 43 47 46 43 42 44 43 25 10 9 10 11 10 12 15 17 18 18 19 20 21 23 23
56 45 15 8 33 20 35 71 86 99 100 98 59 33 27 38 58 52 53 39 30 35 34 30 28 34 43 45 44 42 41 45 44 44 45 37 34 22 8 6 5 5 6 8 9 11 13 14 14 13 13 14 13 13
60 49 19 6 31 36 16 72 76 94 100 98 88 51 41 42 43 43 35 38 37 42 35 26 21 30 32 37 38 41 40 44 34 28 28 30 10 8 8 8 5 4 5 6 7 9 11 11 10 10 10 8 8 9
62 52 20 6 27 45 18 46 73 77 93 100 91 75 59 53 65 60 42 41 40 36 32 26 20 23 29 35 38 37 29 29 21 20 23 16 6 5 5 5 5 6 6 7 8 8 9 9 8 8 8 8 8 8
69 52 19 7 30 53 32 38 77 76 84 98 98 94 90 85 69 56 42 41 32 31 26 25 21 17 24 36 38 29 22 18 18 15 17 10 6 6 7 8 9 7 7 8 9 8 8 9 9 9 9 10 10 10
72 48 14 10 29 66 54 24 88 99 90 97 100 97 93 93 92 54 44 39 29 18 17 14 15 17 25 30 25 24 15 13 12 13 10 6 6 6 6 9 10 10 10 9 8 8 8 10 10 13 14 15 16 18
74 45 13 14 38 75 67 23 57 98 98 95 97 97 93 85 83 68 50 38 28 20 14 14 17 21 25 25 23 11 13 10 9 9 5 4 6 7 7 11 13 14 12 10 8 8 10 12 15 19 19 21 23 23
70 36 14 21 43 74 82 25 39 99 97 96 96 90 88 77 71 59 50 37 30 22 16 15 17 21 22 26 17 10 9 10 7 5 5 7 7 7 10 10 10 15 17 14 12 12 14 17 22 23 24 26 28 28
67 44 17 24 55 76 98 36 58 100 97 96 94 81 83 82 76 63 47 37 32 21 18 25 26 23 22 16 10 8 9 5 4 5 7 7 10 11 10 9 13 19 20 18 18 19 22 25 29 28 29 31 30 22
63 51 22 30 62 76 99 88 24 77 98 98 89 83 76 79 77 68 55 53 39 27 21 23 22 17 15 12 10 8 6 5 5 5 6 8 10 9 8 11 19 24 24 24 26 28 33 36 32 33 34 28 20 18
51 30 22 58 87 100 98 91 36 99 100 90 76 79 83 67 78 75 58 60 51 32 26 22 21 19 16 15 11 10 9 7 7 7 7 8 8 9 12 21 28 30 32 34 37 41 38 36 36 32 23 19 18 18
27 15 51 98 98 98 94 80 37 83 88 92 81 72 88 80 62 85 87 84 80 58 36 28 30 33 34 34 36 39 24 19 25 20 13 11 10 13 23 32 37 41 42 44 43 38 37 33 26 22 21 22 22 23
16 27 86 99 97 98 90 89 69 48 72 80 83 79 79 84 71 69 80 96 64 61 70 61 54 45 50 47 40 40 46 45 47 34 19 17 22 30 38 44 45 44 45 41 38 34 29 26 25 27 29 30 29 28
67 65 100 98 96 95 70 86 87 92 88 77 59 60 83 89 81 86 95 97 83 78 83 78 62 47 55 58 54 51 44 47 56 56 48 46 47 48 48 45 44 43 40 36 32 29 28 32 34 36 36 36 35 35
95 100 98 97 97 97 91 93 96 96 91 94 90 92 93 95 90 92 94 96 80 47 62 60 60 76 63 58 63 66 56 50 59 61 61 58 54 46 40 42 40 37 35 32 32 35 38 40 39 35 30 28 29 30
100 99 97 98 98 95 96 97 97 97 98 95 95 96 96 96 95 95 93 86 84 56 47 55 62 65 69 61 56 55 56 64 66 62 52 42 37 37 38 38 36 35 34 36 40 41 39 30 23 20 20 20 19 20
96 98 98 96 94 97 91 97 97 97 98 95 96 96 95 96 93 96 90 75 71 68 48 51 67 56 51 52 54 54 53 62 69 44 34 33 35 37 38 37 35 37 41 42 39 27 18 15 14 12 12 14 21 27
99 97 97 96 94 90 86 85 96 99 92 94 90 95 96 93 92 85 74 78 70 67 83 72 65 75 66 60 61 69 68 70 58 34 31 34 38 39 38 38 40 42 40 28 18 13 11 9 13 20 27 31 32 30
96 95 92 91 91 89 86 87 88 81 90 89 87 90 95 94 87 81 70 65 71 78 84 76 70 66 63 62 68 66 78 77 37 30 34 38 40 39 39 42 43 33 21 14 10 9 14 20 26 28 25 22 21 20
95 94 86 84 88 82 91 88 85 91 89 82 88 80 82 95 87 74 67 65 63 80 95 96 96 91 82 91 83 91 85 58 34 35 39 40 40 41 43 41 26 15 11 8 13 19 25 28 24 20 21 24 28 31
92 85 78 77 86 84 77 74 86 91 96 86 81 79 77 77 68 61 59 64 68 80 92 95 87 96 96 91 96 94 68 39 37 41 42 42 42 43 35 19 12 9 11 17 21 28 27 23 21 22 23 24 28 34
88 85 80 76 85 95 79 70 74 79 86 89 77 73 64 57 62 69 68 71 88 89 92 92 93 94 94 96 95 82 61 38 41 43 43 45 43 27 15 10 10 17 19 25 27 27 25 24 26 27 28 28 29 30
90 78 69 85 92 100 98 80 84 88 79 72 72 70 65 62 61 68 84 89 91 91 93 96 96 96 97 96 94 77 46 42 44 45 46 37 20 12 8 15 19 21 29 30 29 28 28 30 32 33 35 36 36 35
80 84 86 84 95 87 80 74 73 71 64 66 62 64 70 69 68 72 79 88 96 96 96 96 97 93 94 95 86 48 44 45 48 44 28 14 9 12 19 20 25 32 31 30 30 32 33 35 38 40 44 45 45 44
95 94 85 96 95 94 92 87 79 82 83 82 84 88 83 74 76 82 92 97 97 98 97 96 95 94 95 81 53 48 50 50 38 19 11 11 18 20 21 29 33 32 31 33 34 35 35 37 39 41 45 50 54 55
90 88 92 95 96 94 90 91 90 92 93 95 96 97 95 95 96 95 97 97 97 97 96 95 94 86 78 64 54 54 46 26 14 12 18 22 21 23 30 35 35 34 36 36 35 33 34 35 38 44 49 56 60 60
Wind_Speed
32 34 33 31 12 13 13 9 15 20 23 17 10 12 14 16 16 20 14 5 5 6 9 12 15 20 21 19 19 21 20 20 18 13 8 6 5 9 8 8 10 12 9 8 9 5 5 8 8 8 5 6 5 6
29 31 30 29 6 8 7 7 14 15 15 12 9 12 17 18 17 18 11 7 2 4 5 13 14 15 17 17 15 17 14 15 15 13 9 7 5 7 9 6 11 10 10 5 8 4 5 5 3 4 6 7 6 7
26 27 26 25 2 5 3 8 13 11 9 9 9 8 9 9 12 15 14 10 5 3 5 14 15 16 16 16 14 12 18 3 19 13 7 6 4 7 7 12 9 13 11 8 9 9 9 9 8 8 8 10 12 14
23 24 21 21 6 5 5 4 12 10 10 14 12 14 12 16 13 13 10 7 6 6 3 13 14 17 17 18 18 17 14 17 8 14 15 12 7 5 10 10 12 13 12 12 13 11 9 9 9 11 11 13 15 16
21 22 17 16 9 9 10 7 12 11 8 14 12 13 20 17 12 9 6 4 5 6 2 11 15 17 17 17 18 18 18 16 17 12 16 15 14 11 9 13 17 16 14 13 8 7 8 8 11 12 13 15 17 17
18 20 15 12 10 11 12 13 2 12 13 14 17 22 20 13 11 10 6 4 7 7 5 7 14 19 18 18 19 17 17 16 19 17 14 17 13 10 7 10 7 9 10 13 13 11 11 11 12 13 14 16 16 16
18 19 15 11 9 13 11 12 5 16 25 20 26 26 22 16 13 14 8 5 7 8 4 5 6 17 18 18 18 17 17 17 17 17 17 15 14 14 19 18 5 4 7 8 10 11 12 11 12 13 13 14 16 18
18 18 15 13 8 14 14 13 9 16 23 24 24 20 17 17 16 13 9 5 8 6 7 4 5 13 19 19 18 17 16 16 16 16 15 15 16 17 11 6 9 11 10 9 10 11 11 12 13 14 15 16 18 20
19 19 15 14 11 12 18 18 14 14 17 25 24 20 18 19 16 12 10 9 9 10 6 6 6 8 19 20 18 16 15 16 13 15 17 11 17 14 7 6 6 8 10 11 12 12 12 13 14 15 16 17 19 21
21 20 17 15 14 12 21 22 22 18 16 21 22 24 19 17 14 13 12 14 13 16 13 10 8 9 13 20 19 14 11 13 6 13 11 19 23 14 12 10 9 10 10 11 12 12 13 13 14 15 17 18 20 21
23 20 20 18 16 16 23 25 29 25 22 22 28 29 21 19 14 11 8 10 11 10 12 17 12 11 13 21 19 14 6 7 6 7 11 7 15 9 13 13 14 13 12 13 12 12 12 12 14 15 17 19 20 22
25 22 22 20 18 19 21 27 27 28 26 23 25 32 29 21 10 10 10 10 9 13 8 15 13 16 15 22 16 14 7 7 6 7 8 7 13 9 8 9 10 12 12 11 12 12 12 13 14 16 18 20 22 24
25 23 23 22 20 22 22 28 28 25 24 23 25 27 15 17 17 14 15 14 14 5 14 15 20 21 19 23 11 9 8 7 5 7 7 8 8 8 9 8 8 8 9 10 12 12 12 14 16 18 20 21 22 25
25 23 24 24 22 23 25 31 31 30 22 20 24 22 15 12 13 23 20 20 19 18 12 17 22 22 18 25 11 7 9 7 7 8 9 10 9 10 8 7 5 6 8 10 12 13 14 16 18 20 21 22 24 27
25 25 25 26 25 24 28 34 33 29 30 22 15 15 24 21 14 13 23 19 24 21 18 19 23 19 21 11 11 9 8 8 9 8 9 5 7 9 10 7 6 7 9 11 13 14 15 18 21 22 24 25 27 29
26 27 26 27 26 25 30 36 39 38 32 32 22 20 17 17 22 18 22 20 20 23 22 26 25 11 13 9 10 12 7 7 8 9 8 7 9 13 12 9 8 8 11 13 14 16 18 21 22 23 25 28 30 29
30 30 26 26 27 26 35 42 45 43 28 33 42 41 28 13 21 23 21 25 22 25 29 27 15 12 10 12 14 13 18 13 11 11 11 12 15 14 11 10 9 11 13 14 16 19 21 23 23 25 26 28 29 28
33 29 25 27 23 30 40 44 44 35 41 42 45 41 40 37 20 25 29 25 28 23 26 28 16 17 9 9 11 15 19 20 18 15 13 14 14 13 12 11 12 13 15 17 19 21 22 23 25 26 26 26 27 29
29 28 25 26 27 42 47 47 51 37 39 46 50 46 34 36 37 28 28 28 31 30 31 32 20 20 22 19 18 17 14 12 11 12 13 14 14 13 13 14 14 16 17 19 20 21 22 24 24 25 27 28 29 31
31 27 27 29 31 41 42 36 40 53 39 36 35 39 41 41 38 32 31 36 31 34 37 40 36 22 15 16 20 16 13 11 12 12 15 16 15 15 15 16 16 17 18 18 20 21 22 24 25 27 29 30 30 31
29 29 28 29 35 40 42 33 35 36 44 42 36 40 37 41 42 40 30 31 34 44 42 37 35 31 22 17 15 13 12 10 11 12 13 14 15 15 16 17 17 17 17 19 21 22 23 25 26 28 30 31 33 34
33 32 34 33 38 34 37 32 38 36 38 35 30 34 39 44 41 42 40 39 41 41 41 38 33 27 25 26 24 22 21 17 16 15 15 15 15 17 17 17 16 17 18 20 21 23 25 27 29 31 32 33 33 34
40 41 38 48 39 39 30 35 29 33 34 40 38 28 39 40 44 37 34 42 47 39 40 40 33 29 27 28 25 22 17 15 17 17 17 17 17 17 16 16 17 18 19 21 23 25 27 29 30 32 33 34 34 34
48 49 49 35 37 30 35 28 34 29 32 30 37 39 31 35 31 35 47 46 43 43 36 38 37 30 30 30 24 18 20 21 21 22 20 18 17 17 17 17 17 18 21 24 25 27 29 30 32 34 36 38 39 39
53 42 38 31 38 42 36 41 38 39 34 32 32 35 28 30 36 41 46 48 47 41 40 36 41 36 31 25 20 21 20 21 24 23 20 19 18 18 17 17 18 20 23 24 26 28 30 32 34 35 38 40 42 44
36 27 33 41 39 42 47 42 43 42 37 36 34 35 34 33 32 30 40 38 40 40 38 34 34 36 35 29 27 28 25 23 23 22 20 20 19 18 18 18 20 22 23 25 27 29 30 32 34 36 39 40 40 38
33 25 39 43 46 45 38 40 37 37 39 32 36 37 37 28 26 35 35 32 26 32 43 37 30 30 30 29 31 25 19 21 23 22 21 19 18 18 19 20 21 23 24 26 27 29 30 31 34 35 35 35 35 34
42 37 41 43 41 43 42 47 40 33 35 27 34 39 36 28 31 29 24 23 26 30 30 29 34 35 35 36 27 18 20 23 23 22 19 17 17 19 19 20 21 23 24 26 27 28 30 31 31 32 33 33 32 32
40 37 28 37 36 39 41 41 41 39 32 33 32 35 40 42 38 29 24 18 20 25 27 37 40 40 39 24 19 20 21 24 22 19 18 18 18 18 19 20 20 21 24 25 26 27 28 28 30 31 32 32 32 32
34 35 34 39 40 31 38 34 38 38 36 37 34 34 35 35 33 28 22 20 21 28 31 38 36 35 28 22 21 21 24 22 19 18 18 17 17 18 19 18 20 22 22 24 25 26 27 29 30 31 31 31 31 30
32 33 41 45 43 33 33 37 35 37 38 38 37 37 37 32 28 26 26 24 26 28 31 35 41 27 26 25 22 24 21 19 17 17 16 16 16 16 17 19 20 20 22 23 23 24 26 27 27 28 28 28 28 28
32 29 33 40 41 35 27 34 35 35 35 33 36 38 37 33 30 23 22 23 25 30 34 35 34 32 27 23 23 20 18 17 16 15 14 14 14 15 17 17 18 20 21 21 23 24 25 25 26 26 26 26 26 27
39 38 33 29 33 42 38 36 37 35 34 33 37 41 41 39 35 27 25 25 27 28 30 31 29 26 25 23 20 17 17 15 14 13 12 12 14 15 15 17 18 19 19 21 22 23 23 24 24 24 25 25 25 26
Wind_Direction
333 339 341 346 342 346 6 39 51 41 45 55 96 151 167 184 192 174 154 160 102 58 154 157 160 169 175 181 181 178 176 192 192 198 210 210 206 195 199 195 186 187 195 192 198 212 252 206 211 212 222 214 261 287
332 338 341 346 334 336 4 73 65 49 55 79 92 119 138 150 166 187 180 201 93 69 170 169 168 174 182 187 187 191 186 205 199 204 209 209 211 202 209 206 203 198 202 198 196 210 166 171 209 232 235 254 273 280
328 335 339 345 284 306 351 122 82 59 86 114 144 150 145 168 178 181 187 191 168 132 174 184 183 182 184 191 197 205 210 199 214 219 221 226 220 232 215 226 213 216 208 215 212 226 229 244 258 256 253 265 274 279
320 330 336 341 250 259 273 128 106 83 117 148 150 178 182 160 153 150 156 160 164 168 199 196 199 196 196 199 205 213 213 225 240 226 231 238 250 258 234 238 229 226 221 228 237 235 243 247 252 253 261 272 276 282
314 321 331 334 265 241 263 257 130 102 117 155 163 187 178 156 150 152 150 185 212 193 236 216 210 204 206 208 212 219 222 227 223 228 228 238 243 255 257 250 243 235 237 237 264 245 249 257 255 260 267 274 281 284
304 310 316 318 290 238 260 262 240 149 159 169 175 177 179 172 171 179 174 206 229 219 301 211 216 211 212 216 218 222 222 225 226 233 240 233 234 246 255 258 257 232 229 234 247 256 258 263 267 269 274 278 281 284
292 300 304 304 302 240 247 252 252 162 159 172 177 176 179 185 190 189 193 221 217 225 276 195 215 215 215 215 217 215 218 226 227 235 236 232 232 243 252 255 265 245 235 239 245 252 260 268 271 274 279 284 288 291
279 286 290 286 276 227 230 223 223 175 168 176 180 183 189 195 193 197 209 236 206 227 201 223 242 212 206 208 210 213 217 218 224 228 230 232 233 242 257 254 236 241 243 249 254 255 259 265 271 277 282 286 290 293
267 274 276 267 260 232 218 211 211 205 185 183 184 186 189 192 193 214 232 224 222 204 213 231 233 221 205 205 208 210 214 218 234 235 231 238 235 230 230 229 228 230 233 238 247 251 256 263 270 277 283 287 290 294
261 268 268 255 254 237 219 209 212 210 208 192 194 192 187 191 201 216 213 210 213 224 235 235 232 223 201 201 200 199 209 212 239 230 232 243 248 239 237 241 243 241 241 241 244 248 253 261 271 279 285 289 293 297
257 260 260 247 248 235 218 216 211 218 222 221 207 200 197 192 199 206 214 209 219 228 237 228 218 209 204 197 193 190 200 211 230 229 210 243 256 242 235 238 245 249 245 246 248 251 254 265 276 285 290 294 298 301
253 253 252 242 238 235 225 217 215 215 224 224 229 213 208 206 208 223 220 216 217 215 233 211 209 200 202 191 188 205 221 221 233 218 213 240 256 235 225 231 238 239 245 248 249 251 257 271 283 289 293 298 301 303
251 252 249 239 231 229 230 216 211 209 213 222 231 223 212 210 215 215 210 194 203 212 225 220 205 197 193 190 196 208 217 229 215 216 230 227 229 247 250 242 229 230 239 245 247 251 264 279 288 294 297 299 301 302
249 248 246 237 229 224 225 220 212 210 210 215 220 211 210 210 219 219 222 222 222 230 237 214 204 193 187 190 199 214 218 216 223 224 229 249 234 225 234 200 218 234 237 242 248 258 271 284 293 297 298 301 301 302
248 246 242 234 228 224 221 221 216 212 210 207 205 216 230 222 223 219 211 216 217 223 225 212 205 196 194 182 203 210 207 215 217 217 235 217 217 218 204 224 245 231 240 246 254 266 278 288 294 299 300 303 302 304
250 249 243 231 232 225 220 217 213 212 213 215 221 224 234 230 219 220 213 214 211 215 215 199 197 205 201 208 198 205 209 212 214 202 205 213 206 210 221 243 236 246 251 255 264 273 283 290 297 302 303 303 304 308
250 249 237 230 228 228 220 218 214 213 220 223 229 228 223 236 218 215 213 212 216 217 217 193 195 203 207 211 210 215 224 238 238 233 224 219 211 223 244 247 250 254 256 262 272 282 290 296 300 301 302 303 306 307
243 245 227 223 217 196 208 213 212 213 224 225 229 236 233 230 242 222 215 212 221 219 212 202 207 211 210 210 224 242 248 255 253 243 242 228 228 246 246 252 254 257 263 273 282 289 294 298 301 302 304 304 306 306
242 236 220 208 208 205 208 210 212 219 227 229 229 234 237 230 233 240 228 223 228 223 210 214 228 233 236 247 255 265 249 244 248 244 238 235 236 247 254 254 256 263 273 282 288 292 297 300 302 303 305 306 307 305
230 218 212 205 223 211 206 212 226 229 230 230 232 239 242 239 233 235 238 222 227 227 223 226 231 240 251 250 245 246 251 261 260 246 239 245 247 246 249 255 264 275 281 286 292 297 300 302 304 307 308 307 306 303
216 205 200 215 215 212 211 218 221 233 236 236 238 240 241 239 232 226 238 224 225 227 230 232 232 231 233 243 247 252 265 284 279 259 248 245 245 249 258 267 275 280 286 292 296 300 303 305 307 308 306 305 304 304
209 200 203 213 206 208 207 220 221 229 223 219 225 221 222 223 223 225 232 231 229 229 226 231 235 241 232 236 247 250 257 274 290 267 252 247 252 261 269 274 279 285 290 295 300 304 307 309 308 307 306 305 306 307
203 200 206 200 196 202 214 219 212 219 220 220 219 212 214 216 218 220 223 231 226 225 227 228 227 228 230 239 239 245 261 298 284 262 257 260 264 267 271 277 283 288 294 301 306 308 309 309 309 309 310 311 310 309
205 201 200 196 203 198 209 209 211 203 203 206 211 214 220 217 231 228 225 230 229 222 227 230 224 227 230 235 240 253 265 281 280 271 267 265 267 270 274 279 286 295 302 307 310 311 312 312 313 314 315 314 313 311
203 194 198 197 205 202 204 210 211 206 211 211 218 214 215 222 225 229 236 238 232 226 226 231 226 229 229 231 239 252 267 279 272 268 265 264 268 272 278 286 293 300 306 309 310 312 313 314 316 317 316 315 314 313
196 196 199 205 204 201 203 202 207 211 207 211 215 220 222 223 227 236 243 243 241 230 223 224 228 230 227 233 246 259 268 259 265 264 262 266 271 277 284 292 301 307 309 311 312 313 315 317 318 319 319 319 318 319
197 192 198 202 210 205 198 205 211 208 203 208 209 216 220 219 233 240 245 244 243 238 232 231 233 227 221 232 246 248 246 252 256 256 259 263 273 282 292 301 306 307 309 311 314 316 318 321 323 324 325 325 324 324
198 202 204 202 203 204 205 206 205 203 206 208 210 214 215 218 234 241 246 249 241 242 239 220 203 206 221 232 238 231 242 247 249 252 258 266 277 289 296 300 304 307 311 314 317 320 322 325 327 328 330 331 331 331
193 194 196 198 195 196 200 206 208 212 212 210 215 220 224 230 238 239 241 234 225 225 218 203 209 221 229 227 219 227 236 244 246 252 261 274 286 292 296 301 305 310 314 317 321 323 326 328 330 331 333 335 337 336
178 184 188 191 192 191 198 204 207 211 218 222 226 228 233 235 235 230 230 237 230 225 224 216 223 235 227 215 219 228 235 240 247 258 271 279 286 292 297 303 311 314 318 322 324 327 329 331 332 333 335 337 337 336
171 182 186 190 190 195 203 208 213 217 219 223 227 227 229 230 226 224 233 234 237 240 236 232 225 205 205 209 215 226 232 242 254 264 271 279 287 294 302 309 314 319 323 324 326 328 329 329 330 331 332 334 335 337
163 175 188 193 198 199 201 207 212 214 216 220 223 220 220 220 223 227 227 226 232 235 222 202 185 196 204 206 216 225 237 249 256 264 272 282 291 300 308 314 319 322 323 325 328 327 328 328 327 329 333 336 337 338
194 198 199 201 206 208 210 214 214 210 214 217 219 218 218 220 224 220 217 218 211 201 192 184 181 185 198 209 219 231 241 247 256 264 276 288 298 308 315 319 322 324 325 326 327 328 327 326 330 334 337 339 341 343